[[{"header":{"parameterUnit":"m.s-1","parameterCategory":1,"la1":30.2991,"la2":30.254,"lo1":-89.0895,"lo2":-89.0444,"dy":0.0017,"dx":0.0017,"nx":28,"ny":28,"refTime":"2024-02-18T09:00:00:Z","depth":0,"parameterNumber":2,"parameterNumberName":"U-component_of_WINDS"},"data":[0,0,0,0,0,0,0,0,0,0,0,0,0,0,0,0,0,0,0,0,0,0,0,0,0,0,0,0,0,0,0,0,0,0,0,0,0,0,0,0,0,0,0,0,0,0,0,0,0,0,0,0,0,0,0,0,0,0,0.5451,0.545,0,0.5388,0.5387,0.5386,0.5388,0.5389,0.539,0.5391,0.5323,0.532,0.5318,0,0,0,0,0,0,0,0,0,0,0,0,0,0.5571,0.5569,0.5451,0.545,0.5449,0.5388,0.5387,0.5386,0.5388,0.5389,0.539,0.5391,0.5324,0.5321,0.5317,0,0,0,0,0,0,0,0,0,0,0,0,0,0.5514,0.5568,0.5451,0.5443,0.5442,0.5388,0.5387,0.5386,0.5388,0.5389,0.539,0.5392,0.5325,0.5321,0.5317,0.5266,0,0,0.5305,0.5303,0,0,0,0,0,0,0,0,0.5517,0.551,0.5445,0.5443,0.5442,0.5397,0.5404,0.5346,0.5387,0.5408,0.5391,0.5392,0.5346,0.5341,0.5326,0.5263,0.526,0.5305,0.5302,0.5301,0.5299,0,0,0,0,0,0,0,0.5521,0.5513,0.5426,0.5444,0.5442,0.5442,0.5435,0.5393,0.537,0.5406,0.5406,0.5399,0.5346,0.533,0.5324,0.5259,0.5305,0.5301,0.5299,0.5297,0.5152,0.515,0,0,0,0,0,0,0.5527,0.5516,0.5428,0.5424,0.5484,0.5439,0.5431,0.541,0.5371,0.5366,0.5398,0.5399,0.5336,0.5329,0.5322,0.5259,0.5301,0.5297,0.5295,0.5153,0.5151,0.515,0,0,0,0,0,0,0.553,0.552,0.543,0.547,0.5459,0.5435,0.5411,0.5408,0.5392,0.5365,0.536,0.5386,0.5336,0.5327,0.528,0.5257,0.5295,0.5292,0.5155,0.5153,0.5151,0.5134,0,0,0,0,0,0,0.5533,0.552,0.5501,0.5469,0.5456,0.539,0.541,0.5406,0.5386,0.5387,0.5352,0.5348,0.5337,0.5286,0.5276,0.5252,0.5288,0.5157,0.5154,0.5151,0.5137,0.5132,0.5127,0,0,0,0,0,0.5538,0.5499,0.55,0.549,0.5432,0.5389,0.5381,0.5371,0.5384,0.5364,0.5347,0.5349,0.5262,0.5281,0.527,0.5245,0.5158,0.5155,0.5152,0.5139,0.5133,0.5127,0,0,0,0,0,0,0.5527,0.5494,0.5496,0.5445,0.542,0.539,0.5364,0.5365,0.5334,0.5336,0.5324,0.5316,0.5269,0.5252,0.5275,0.5194,0.5212,0.5206,0.5206,0.5199,0.5195,0.5199,0.5285,0,0,0,0,0,0.5519,0.5488,0.5461,0.5419,0.5406,0.5387,0.5368,0.5362,0.5335,0.5324,0.5303,0.5276,0.5242,0.522,0.5188,0.5135,0.5127,0.5112,0.5108,0.5104,0.5098,0.5068,0.5061,0.5139,0.5139,0.5139,0,0,0.5502,0.548,0.5461,0.5416,0.5396,0.5362,0.5378,0.5342,0.5317,0.5318,0.5272,0.5256,0.5225,0.5175,0.5152,0.516,0.5076,0.51,0.5097,0.5093,0.5064,0.5057,0.505,0.5136,0.5137,0.5137,0,0,0.5452,0.5434,0.5396,0.5376,0.5346,0.5334,0.5325,0.5295,0.5284,0.5239,0.5239,0.5209,0.5151,0.5129,0.511,0.5055,0.5055,0.5045,0.5019,0.499,0.4984,0.4979,0.4957,0.495,0.504,0.504,0.504,0,0.5434,0.5385,0.5377,0.5341,0.5321,0.5322,0.5284,0.5265,0.5225,0.521,0.5221,0.5149,0.5129,0.5073,0.5059,0.5045,0.5033,0.5047,0.4986,0.498,0.4975,0.4955,0.4947,0.5038,0.5039,0.5039,0.5039,0,0.5363,0.5329,0.5303,0.5266,0.5243,0.5206,0.5192,0.517,0.5166,0.5153,0.5107,0.5082,0.5045,0.5032,0.5028,0.4975,0.4981,0.4989,0.5006,0.4967,0.4947,0.4939,0.5037,0.5037,0.5037,0.5038,0,0,0.5303,0.5263,0.5253,0.5237,0.5204,0.5177,0.5141,0.5105,0.5086,0.5059,0.5027,0.498,0.4987,0.4966,0.496,0.4935,0.4891,0.4945,0.4944,0.4935,0.483,0.4823,0.4814,0.4892,0.4891,0.4889,0.4832,0,0.5249,0.5185,0.5177,0.5119,0.5087,0.5089,0.5057,0.5033,0.502,0.4991,0.4977,0.4942,0.4956,0.4943,0.4918,0.4901,0.4869,0.4906,0.486,0.4859,0.4866,0.4804,0.4796,0.4743,0.4825,0.4823,0.4823,0,0.5177,0.5149,0.5088,0.5061,0.5047,0.5018,0.4985,0.4958,0.4931,0.4924,0.4901,0.4898,0.4859,0.4881,0.4827,0.4851,0.4833,0.4822,0.482,0.4813,0.4837,0.4794,0.4726,0.4717,0.4811,0.4812,0.4813,0,0.5137,0.5085,0.5042,0.5027,0.4994,0.4974,0.4959,0.4934,0.4913,0.4885,0.4871,0.4838,0.4819,0.4794,0.4782,0.4799,0.4729,0.4749,0.472,0.472,0.4703,0.4704,0.4629,0.4695,0.4695,0.4695,0.4695,0,0.5077,0.5039,0.5023,0.4996,0.4954,0.4946,0.4904,0.489,0.4868,0.4838,0.4838,0.4809,0.4797,0.4766,0.4757,0.4713,0.4705,0.4697,0.4695,0.4696,0.4697,0.4682,0.4684,0.4693,0.4693,0.4694,0.4694,0,0.5024,0.5012,0.4965,0.4938,0.4931,0.49,0.4877,0.4851,0.484,0.4801,0.4792,0.4774,0.4738,0.4725,0.4681,0.4675,0.4623,0.4625,0.4632,0.4631,0.4602,0.4605,0.4514,0.4501,0.4577,0.4576,0.4576,0,0.4984,0.4956,0.4926,0.4907,0.4891,0.486,0.4839,0.4831,0.4809,0.4777,0.4754,0.4719,0.469,0.4633,0.4615,0.4582,0.4581,0.4552,0.4576,0.4578,0.4579,0.458,0.4576,0.4547,0.4546,0.4545,0.4545,0,0.4916,0.4912,0.4882,0.4851,0.4827,0.4802,0.4777,0.4761,0.4749,0.4724,0.4689,0.4666,0.4623,0.4587,0.4553,0.4537,0.4538,0.4538,0.4529,0.4528,0.4533,0.4529,0.4618,0.4539,0.454,0.454,0.454,0.4541,0.4867,0.4841,0.4817,0.4784,0.4765,0.4743,0.4717,0.4703,0.4673,0.4637,0.4634,0.4595,0.457,0.4524,0.4507,0.4476,0.4484,0.4472,0.4468,0.4464,0.4462,0.4541,0.447,0.447,0.4471,0.4471,0.4471,0,0.4797,0.4781,0.4752,0.4718,0.4692,0.4698,0.4672,0.4649,0.4615,0.4592,0.4564,0.4523,0.4489,0.447,0.4436,0.4415,0.4414,0.4406,0.4406,0.4402,0.4457,0.4468,0.4406,0.4406,0.4406,0.4407,0.4407,0.4407,0.4757,0.4713,0.4707,0.4654,0.4639,0.4601,0.4586,0.4565,0.4546,0.45,0.4473,0.4461,0.4439,0.4403,0.4372,0.4368,0.4354,0.4345,0.434,0.4392,0.4398,0.4404,0.4414,0.4342,0.4342,0.4287,0.4286,0.4286]},{"header":{"parameterUnit":"m.s-1","parameterCategory":1,"la1":30.2991,"la2":30.254,"lo1":-89.0895,"lo2":-89.0444,"dy":0.0017,"dx":0.0017,"nx":28,"ny":28,"refTime":"2024-02-18T09:00:00:Z","depth":0,"parameterNumber":3,"parameterNumberName":"V-component_of_WINDS"},"data":[0,0,0,0,0,0,0,0,0,0,0,0,0,0,0,0,0,0,0,0,0,0,0,0,0,0,0,0,0,0,0,0,0,0,0,0,0,0,0,0,0,0,0,0,0,0,0,0,0,0,0,0,0,0,0,0,0,0,-4.6893,-4.6894,0,-4.7022,-4.7024,-4.7025,-4.6956,-4.6953,-4.6949,-4.6946,-4.7075,-4.7082,-4.7088,0,0,0,0,0,0,0,0,0,0,0,0,0,-4.6583,-4.6589,-4.6893,-4.6894,-4.6896,-4.7022,-4.7024,-4.7025,-4.6957,-4.6953,-4.6948,-4.6944,-4.7073,-4.7081,-4.7089,0,0,0,0,0,0,0,0,0,0,0,0,0,-4.6715,-4.6591,-4.6892,-4.6877,-4.6877,-4.7022,-4.7024,-4.7026,-4.6958,-4.6953,-4.6947,-4.6942,-4.7071,-4.708,-4.709,-4.7256,0,0,-4.7121,-4.7125,0,0,0,0,0,0,0,0,-4.6708,-4.6727,-4.6878,-4.6878,-4.6878,-4.6968,-4.6962,-4.7103,-4.6959,-4.6927,-4.6946,-4.694,-4.7044,-4.7055,-4.7091,-4.7262,-4.7268,-4.7122,-4.7128,-4.7132,-4.7135,0,0,0,0,0,0,0,-4.6699,-4.6721,-4.6944,-4.688,-4.688,-4.6862,-4.6876,-4.6988,-4.7013,-4.6929,-4.6925,-4.6941,-4.7043,-4.7082,-4.7094,-4.727,-4.7121,-4.713,-4.7136,-4.714,-4.7583,-4.7589,0,0,0,0,0,0,-4.6691,-4.6714,-4.694,-4.6948,-4.6779,-4.6872,-4.6887,-4.6944,-4.7011,-4.7017,-4.6945,-4.6937,-4.7067,-4.7082,-4.7098,-4.7297,-4.7132,-4.7141,-4.7147,-4.7577,-4.7584,-4.7591,0,0,0,0,0,0,-4.6685,-4.6712,-4.6934,-4.683,-4.6856,-4.6883,-4.6948,-4.695,-4.6988,-4.7024,-4.7027,-4.6981,-4.7064,-4.7084,-4.7218,-4.73,-4.7146,-4.7155,-4.7571,-4.758,-4.7588,-4.7696,0,0,0,0,0,0,-4.6676,-4.671,-4.6774,-4.6831,-4.6862,-4.7054,-4.6953,-4.6956,-4.7006,-4.6997,-4.7058,-4.7063,-4.7061,-4.7203,-4.7228,-4.7311,-4.7163,-4.7563,-4.7575,-4.7585,-4.7685,-4.7707,-4.7726,0,0,0,0,0,-4.6665,-4.6799,-4.6778,-4.6806,-4.6944,-4.7058,-4.7076,-4.7072,-4.7013,-4.7078,-4.71,-4.7061,-4.7287,-4.7217,-4.7244,-4.7332,-4.7558,-4.7571,-4.7584,-4.7676,-4.7703,-4.7726,0,0,0,0,0,0,-4.675,-4.6806,-4.6783,-4.694,-4.6995,-4.7047,-4.7128,-4.7101,-4.7173,-4.7161,-4.7152,-4.7166,-4.7305,-4.7332,-4.7253,-4.7496,-4.7413,-4.7432,-4.7474,-4.75,-4.752,-4.7511,-4.7171,0,0,0,0,0,-4.6787,-4.6877,-4.692,-4.7054,-4.7083,-4.7101,-4.7151,-4.7143,-4.7199,-4.7222,-4.7254,-4.7309,-4.7392,-4.7447,-4.7526,-4.7688,-4.77,-4.7762,-4.7783,-4.7799,-4.7816,-4.7903,-4.7931,-4.7633,-4.7633,-4.7633,0,0,-4.6864,-4.6906,-4.6963,-4.7073,-4.7114,-4.7206,-4.7121,-4.7222,-4.729,-4.7237,-4.7366,-4.7391,-4.7452,-4.7601,-4.7668,-4.7627,-4.7901,-4.7816,-4.7829,-4.7837,-4.7919,-4.7948,-4.7973,-4.7642,-4.764,-4.7639,0,0,-4.7052,-4.7093,-4.7209,-4.7253,-4.7317,-4.7328,-4.7356,-4.7412,-4.7427,-4.7556,-4.7518,-4.7598,-4.7742,-4.7787,-4.7828,-4.8033,-4.7999,-4.8059,-4.8166,-4.8251,-4.8275,-4.8295,-4.8368,-4.8395,-4.8075,-4.8075,-4.8075,0,-4.714,-4.7278,-4.7272,-4.7377,-4.7425,-4.7382,-4.7499,-4.7541,-4.7628,-4.7662,-4.7616,-4.7795,-4.7833,-4.7992,-4.8041,-4.8077,-4.8107,-4.8052,-4.8272,-4.8293,-4.8312,-4.8381,-4.8409,-4.8082,-4.8081,-4.808,-4.808,0,-4.7383,-4.7479,-4.7565,-4.7651,-4.7709,-4.782,-4.7829,-4.7888,-4.7875,-4.7891,-4.8022,-4.8066,-4.8153,-4.8189,-4.8177,-4.8346,-4.8319,-4.8273,-4.8189,-4.8347,-4.8412,-4.8439,-4.8092,-4.8089,-4.8087,-4.8086,0,0,-4.7629,-4.771,-4.7741,-4.778,-4.7847,-4.7921,-4.8029,-4.8114,-4.8166,-4.8226,-4.8316,-4.8438,-4.8396,-4.8443,-4.8435,-4.851,-4.8669,-4.8454,-4.8455,-4.8493,-4.8858,-4.8893,-4.8924,-4.8647,-4.8652,-4.8656,-4.8853,0,-4.7821,-4.8011,-4.8008,-4.8184,-4.8272,-4.8232,-4.8325,-4.8377,-4.8394,-4.847,-4.8488,-4.8575,-4.8512,-4.8541,-4.8613,-4.8635,-4.8742,-4.862,-4.8729,-4.8733,-4.8716,-4.8958,-4.8995,-4.9178,-4.8878,-4.8882,-4.8885,0,-4.8072,-4.8142,-4.8327,-4.8381,-4.8418,-4.8503,-4.8581,-4.8655,-4.8711,-4.8718,-4.8771,-4.8752,-4.8859,-4.8773,-4.8921,-4.8838,-4.8882,-4.8899,-4.8906,-4.8916,-4.8819,-4.8975,-4.9237,-4.9265,-4.8925,-4.8922,-4.8919,0,-4.8233,-4.8374,-4.8502,-4.8536,-4.8603,-4.8663,-4.8693,-4.8745,-4.8796,-4.8864,-4.8897,-4.8976,-4.902,-4.9081,-4.9082,-4.9019,-4.9232,-4.9145,-4.924,-4.924,-4.9287,-4.9284,-4.956,-4.9315,-4.9315,-4.9314,-4.9314,0,-4.8449,-4.8563,-4.8575,-4.8655,-4.8781,-4.8776,-4.8901,-4.8926,-4.8972,-4.9054,-4.9023,-4.9101,-4.9098,-4.9177,-4.9178,-4.93,-4.932,-4.9328,-4.9327,-4.9331,-4.933,-4.936,-4.9348,-4.9322,-4.932,-4.9319,-4.9317,0,-4.8651,-4.8663,-4.8801,-4.8853,-4.8869,-4.896,-4.9003,-4.9078,-4.9092,-4.9196,-4.9221,-4.9242,-4.9333,-4.934,-4.9445,-4.9446,-4.9594,-4.9579,-4.9576,-4.9573,-4.9668,-4.9659,-4.9973,-5.0014,-4.9742,-4.9745,-4.9747,0,-4.8788,-4.8875,-4.8937,-4.899,-4.9024,-4.9111,-4.9163,-4.9161,-4.9217,-4.9288,-4.9354,-4.9442,-4.9512,-4.9658,-4.9683,-4.9762,-4.9749,-4.9854,-4.9761,-4.9762,-4.9751,-4.9746,-4.9754,-4.9872,-4.9875,-4.9877,-4.9879,0,-4.903,-4.9032,-4.911,-4.919,-4.9254,-4.9317,-4.9376,-4.9421,-4.9425,-4.949,-4.9583,-4.9637,-4.9744,-4.9832,-4.991,-4.9939,-4.9911,-4.9908,-4.9935,-4.994,-4.9934,-4.9939,-4.9625,-4.9901,-4.9899,-4.9897,-4.9896,-4.9895,-4.9204,-4.928,-4.9335,-4.9422,-4.9466,-4.9522,-4.9595,-4.9618,-4.9696,-4.9784,-4.9777,-4.988,-4.9933,-5.0035,-5.007,-5.015,-5.0114,-5.0152,-5.0162,-5.0171,-5.0181,-4.9921,-5.0164,-5.0163,-5.0163,-5.0162,-5.0162,0,-4.9445,-4.9478,-4.9559,-4.9642,-4.9711,-4.9679,-4.9741,-4.9801,-4.9892,-4.9945,-5.0015,-5.0121,-5.0205,-5.0236,-5.0318,-5.0376,-5.0364,-5.0397,-5.0393,-5.04,-5.0208,-5.0178,-5.0405,-5.0405,-5.0405,-5.0405,-5.0405,-5.0405,-4.9578,-4.9705,-4.9713,-4.986,-4.9892,-4.9994,-5.0033,-5.0083,-5.0125,-5.0246,-5.0316,-5.0336,-5.038,-5.0464,-5.054,-5.0546,-5.0578,-5.0617,-5.0618,-5.0438,-5.0414,-5.039,-5.0361,-5.0624,-5.0624,-5.0803,-5.0805,-5.0806]}]]